This is the latest recevied weather packets stored in our database for station/object KQ4OSL. If no packets are shown the sender has not sent any weather packets the latest 10 day(s).
| Time | Temp. | Humidity | Pressure | Rain* | Wind** | Luminosity | Snow |
|---|---|---|---|---|---|---|---|
| 1777840127 | 21.11° C | 38% | 1019.6 hPa | 0 mm | - | 482 W/m² | - |
| 1777839825 | 20.56° C | 38% | 1019.7 hPa | 0 mm | - | 495 W/m² | - |
| 1777839523 | 21.11° C | 39% | 1020 hPa | 0 mm | - | 509 W/m² | - |
| 1777839220 | 20.56° C | 43% | 1019.7 hPa | 0 mm | - | 523 W/m² | - |
| 1777838918 | 20.56° C | 43% | 1019.9 hPa | 0 mm | - | 538 W/m² | - |
| 1777838613 | 20.56° C | 41% | 1020 hPa | 0 mm | - | 546 W/m² | - |
| 1777838310 | 20° C | 48% | 1020 hPa | 0 mm | - | 556 W/m² | - |
| 1777838007 | 20° C | 43% | 1020.2 hPa | 0 mm | - | 567 W/m² | - |
| 1777837704 | 20.56° C | 42% | 1020.2 hPa | 0 mm | - | 581 W/m² | - |
| 1777837400 | 20.56° C | 49% | 1020.4 hPa | 0 mm | - | 589 W/m² | - |
| 1777837096 | 20.56° C | 47% | 1020.3 hPa | 0 mm | - | 605 W/m² | - |
| 1777836792 | 20° C | 45% | 1020.6 hPa | 0 mm | - | 619 W/m² | - |
| 1777836488 | 20.56° C | 43% | 1020.8 hPa | 0 mm | - | 628 W/m² | - |
| 1777836183 | 20° C | 44% | 1020.6 hPa | 0 mm | - | 635 W/m² | - |
| 1777835880 | 20° C | 47% | 1020.7 hPa | 0 mm | - | 643 W/m² | - |
| 1777835577 | 20.56° C | 43% | 1020.8 hPa | 0 mm | - | 654 W/m² | - |
| 1777835274 | 20° C | 43% | 1021 hPa | 0 mm | - | 664 W/m² | - |
| 1777834971 | 20° C | 43% | 1021 hPa | 0 mm | - | 674 W/m² | - |
| 1777834668 | 20.56° C | 45% | 1021.2 hPa | 0 mm | - | 683 W/m² | - |
| 1777834364 | 19.44° C | 45% | 1021 hPa | 0 mm | - | 691 W/m² | - |
| 1777834058 | 18.89° C | 46% | 1021 hPa | 0 mm | - | 698 W/m² | - |
| 1777833755 | 18.89° C | 45% | 1021.2 hPa | 0 mm | - | 704 W/m² | - |
| 1777833451 | 19.44° C | 47% | 1021.1 hPa | 0 mm | - | 711 W/m² | - |
| 1777833149 | 19.44° C | 47% | 1021.3 hPa | 0 mm | - | 720 W/m² | - |
| 1777832847 | 18.89° C | 51% | 1021.3 hPa | 0 mm | - | 724 W/m² | - |
* Rain latest hour (hover to see other rain measurements)
** Current wind speed in m/s (hover to see current wind gust speed)